TimeEDT,TemperatureF,Dew PointF,Humidity,Sea Level PressureIn,VisibilityMPH,Wind Direction,Wind SpeedMPH,Gust SpeedMPH,PrecipitationIn,Events,Conditions,WindDirDegrees,DateUTC
12:15 AM,62.6,51.8,68,30.03,10.0,South,3.5,-,N/A,,Overcast,190,2013-03-18 04:15:00
12:35 AM,62.6,51.8,68,30.02,10.0,Calm,Calm,-,N/A,,Scattered Clouds,0,2013-03-18 04:35:00
12:55 AM,60.8,51.8,72,30.02,10.0,Calm,Calm,-,N/A,,Scattered Clouds,0,2013-03-18 04:55:00
1:15 AM,60.8,51.8,72,30.03,10.0,Calm,Calm,-,N/A,,Mostly Cloudy,0,2013-03-18 05:15:00
1:35 AM,60.8,51.8,72,30.03,10.0,Calm,Calm,-,N/A,Rain,Light Rain,0,2013-03-18 05:35:00
1:55 AM,60.8,53.6,77,30.03,10.0,Calm,Calm,-,N/A,,Light Drizzle,0,2013-03-18 05:55:00
2:15 AM,59.0,53.6,82,30.02,10.0,Calm,Calm,-,N/A,,Overcast,0,2013-03-18 06:15:00
2:55 AM,59.0,55.4,88,30.02,10.0,Calm,Calm,-,N/A,,Light Drizzle,0,2013-03-18 06:55:00
3:15 AM,59.0,55.4,88,30.02,10.0,Calm,Calm,-,N/A,Rain,Light Rain,0,2013-03-18 07:15:00
3:35 AM,57.2,55.4,94,30.02,10.0,Calm,Calm,-,N/A,,Light Drizzle,0,2013-03-18 07:35:00
3:55 AM,57.2,55.4,94,30.02,10.0,Calm,Calm,-,N/A,Rain,Rain,0,2013-03-18 07:55:00
4:15 AM,57.2,57.2,100,30.02,10.0,SE,3.5,-,N/A,Rain,Light Rain,140,2013-03-18 08:15:00
4:35 AM,57.2,57.2,100,30.02,10.0,Calm,Calm,-,N/A,,Light Drizzle,0,2013-03-18 08:35:00
4:55 AM,55.4,55.4,100,30.03,10.0,Calm,Calm,-,N/A,,Light Drizzle,0,2013-03-18 08:55:00
5:15 AM,55.4,55.4,100,30.04,7.0,Calm,Calm,-,N/A,,Light Drizzle,0,2013-03-18 09:15:00
5:35 AM,57.2,57.2,100,30.04,10.0,Calm,Calm,-,N/A,Rain,Light Rain,0,2013-03-18 09:35:00
5:55 AM,55.4,55.4,100,30.05,7.0,Calm,Calm,-,N/A,,Overcast,0,2013-03-18 09:55:00
6:15 AM,55.4,55.4,100,30.05,7.0,Calm,Calm,-,N/A,Rain,Rain,0,2013-03-18 10:15:00
6:35 AM,55.4,55.4,100,30.05,5.0,Calm,Calm,-,N/A,,Overcast,0,2013-03-18 10:35:00
6:55 AM,55.4,55.4,100,30.05,7.0,Calm,Calm,-,N/A,,Overcast,0,2013-03-18 10:55:00
7:15 AM,55.4,55.4,100,30.06,7.0,Calm,Calm,-,N/A,,Overcast,0,2013-03-18 11:15:00
7:35 AM,57.2,57.2,100,30.06,10.0,Calm,Calm,-,N/A,,Overcast,0,2013-03-18 11:35:00
7:55 AM,55.4,55.4,100,30.06,7.0,Calm,Calm,-,N/A,,Overcast,0,2013-03-18 11:55:00
8:15 AM,55.4,55.4,100,30.06,7.0,Calm,Calm,-,N/A,,Mostly Cloudy,0,2013-03-18 12:15:00
8:35 AM,57.2,57.2,100,30.07,7.0,Calm,Calm,-,N/A,,Overcast,0,2013-03-18 12:35:00
8:55 AM,59.0,59.0,100,30.07,10.0,Calm,Calm,-,N/A,,Overcast,0,2013-03-18 12:55:00
9:15 AM,59.0,57.2,94,30.08,10.0,Calm,Calm,-,N/A,,Overcast,0,2013-03-18 13:15:00
9:35 AM,59.0,59.0,100,30.08,10.0,Calm,Calm,-,N/A,,Overcast,0,2013-03-18 13:35:00
9:55 AM,60.8,59.0,94,30.08,10.0,Calm,Calm,-,N/A,,Overcast,0,2013-03-18 13:55:00
10:15 AM,60.8,59.0,94,30.09,10.0,East,3.5,-,N/A,,Overcast,100,2013-03-18 14:15:00
10:35 AM,59.0,59.0,100,30.08,10.0,Calm,Calm,-,N/A,,Overcast,0,2013-03-18 14:35:00
11:35 AM,62.6,57.2,82,30.07,10.0,East,4.6,-,N/A,,Overcast,100,2013-03-18 15:35:00
11:55 AM,62.6,57.2,82,30.06,10.0,SSE,3.5,-,N/A,,Overcast,160,2013-03-18 15:55:00
12:15 PM,64.4,57.2,77,30.05,10.0,SSE,6.9,-,N/A,,Overcast,160,2013-03-18 16:15:00
12:35 PM,64.4,57.2,77,30.04,10.0,SSE,4.6,-,N/A,,Overcast,150,2013-03-18 16:35:00
12:55 PM,64.4,57.2,77,30.04,10.0,SSE,3.5,-,N/A,,Overcast,160,2013-03-18 16:55:00
1:15 PM,64.4,57.2,77,30.03,10.0,SE,4.6,-,N/A,,Overcast,140,2013-03-18 17:15:00
1:35 PM,66.2,57.2,73,30.01,10.0,South,5.8,-,N/A,,Overcast,170,2013-03-18 17:35:00
1:55 PM,66.2,57.2,73,30.00,10.0,ESE,8.1,-,N/A,,Overcast,120,2013-03-18 17:55:00
2:15 PM,68.0,59.0,73,29.99,10.0,ESE,3.5,-,N/A,,Overcast,110,2013-03-18 18:15:00
2:35 PM,66.2,59.0,78,29.98,10.0,SSE,3.5,-,N/A,,Overcast,150,2013-03-18 18:35:00
2:55 PM,68.0,57.2,68,29.97,10.0,ESE,5.8,-,N/A,,Overcast,120,2013-03-18 18:55:00
3:15 PM,68.0,57.2,68,29.96,10.0,SSE,9.2,-,N/A,,Overcast,150,2013-03-18 19:15:00
3:35 PM,69.8,57.2,64,29.95,10.0,SSE,9.2,-,N/A,,Overcast,150,2013-03-18 19:35:00
3:55 PM,69.8,57.2,64,29.94,10.0,SE,5.8,-,N/A,,Overcast,130,2013-03-18 19:55:00
4:15 PM,68.0,55.4,64,29.94,10.0,South,8.1,-,N/A,,Mostly Cloudy,170,2013-03-18 20:15:00
4:35 PM,69.8,55.4,60,29.94,10.0,SE,10.4,16.1,N/A,,Scattered Clouds,140,2013-03-18 20:35:00
4:55 PM,68.0,55.4,64,29.94,10.0,SE,6.9,-,N/A,,Mostly Cloudy,130,2013-03-18 20:55:00
5:15 PM,68.0,55.4,64,29.94,10.0,SSE,6.9,-,N/A,,Overcast,150,2013-03-18 21:15:00
5:35 PM,68.0,55.4,64,29.94,10.0,SE,6.9,-,N/A,,Overcast,140,2013-03-18 21:35:00
5:55 PM,66.2,55.4,68,29.91,10.0,SE,9.2,-,N/A,,Mostly Cloudy,140,2013-03-18 21:55:00
6:15 PM,64.4,57.2,77,29.92,10.0,SE,9.2,-,N/A,,Clear,130,2013-03-18 22:15:00
6:35 PM,64.4,57.2,77,29.92,10.0,SE,8.1,-,N/A,,Clear,130,2013-03-18 22:35:00
6:55 PM,64.4,57.2,77,29.91,10.0,SSE,4.6,-,N/A,,Clear,150,2013-03-18 22:55:00
11:15 PM,59.0,55.4,88,29.96,2.5,NNW,15.0,32.2,N/A,Rain-Thunderstorm,Heavy Thunderstorms and Rain,330,2013-03-19 03:15:00